[[{"header":{"parameterUnit":"m.s-1","parameterCategory":1,"la1":30.2991,"la2":30.254,"lo1":-89.0895,"lo2":-89.0444,"dy":0.0017,"dx":0.0017,"nx":28,"ny":28,"refTime":"2024-04-24T03:00:00:Z","depth":0,"parameterNumber":2,"parameterNumberName":"U-component_of_WINDS"},"data":[0,0,0,0,0,0,0,0,0,0,0,0,0,0,0,0,0,0,0,0,0,0,0,0,0,0,0,0,0,0,0,0,0,0,0,0,0,0,0,0,0,0,0,0,0,0,0,0,0,0,0,0,0,0,0,0,0,0,0.9825,0.9825,0,0.9872,0.9873,0.9873,0.9888,0.9888,0.9888,0.9888,0.9934,0.9936,0.9937,0,0,0,0,0,0,0,0,0,0,0,0,0,0.9746,0.9747,0.9825,0.9826,0.9826,0.9872,0.9873,0.9873,0.9888,0.9888,0.9888,0.9888,0.9934,0.9936,0.9937,0,0,0,0,0,0,0,0,0,0,0,0,0,0.9785,0.9747,0.9825,0.9839,0.9841,0.9872,0.9873,0.9873,0.9888,0.9888,0.9888,0.9888,0.9933,0.9936,0.9938,0.9957,0,0,0.9944,0.9945,0,0,0,0,0,0,0,0,0.9783,0.9788,0.9837,0.9838,0.984,0.9874,0.9862,0.9901,0.9888,0.987,0.9888,0.9887,0.9915,0.9918,0.9928,0.9959,0.9961,0.9944,0.9946,0.9947,0.9947,0,0,0,0,0,0,0,0.978,0.9786,0.9844,0.9837,0.984,0.9842,0.9848,0.9869,0.9894,0.9872,0.9873,0.9879,0.9915,0.9926,0.9929,0.9962,0.9944,0.9946,0.9948,0.9948,1.001,1.0011,0,0,0,0,0,0,0.9775,0.9784,0.9842,0.9845,0.981,0.9844,0.985,0.9863,0.9893,0.9898,0.9879,0.9879,0.9922,0.9926,0.9931,0.9955,0.9947,0.9949,0.995,1.001,1.001,1.0011,0,0,0,0,0,0,0.9773,0.978,0.984,0.9815,0.9822,0.9846,0.9861,0.9865,0.9875,0.9899,0.9903,0.9885,0.9922,0.9928,0.995,0.9956,0.995,0.9952,1.001,1.001,1.0011,1.0003,0,0,0,0,0,0,0.9771,0.9779,0.9788,0.9815,0.9824,0.986,0.9861,0.9866,0.9879,0.9879,0.9905,0.9909,0.9922,0.9947,0.9952,0.9959,0.9953,1.0009,1.001,1.001,1.0003,1.0003,1.0003,0,0,0,0,0,0.9768,0.9784,0.9788,0.9795,0.9835,0.986,0.9865,0.988,0.9879,0.9887,0.9902,0.9909,0.9955,0.9949,0.9955,0.9963,1.0009,1.001,1.001,1.0003,1.0003,1.0003,0,0,0,0,0,0,0.9757,0.9788,0.9793,0.9818,0.9836,0.9863,0.9873,0.988,0.9899,0.9899,0.9916,0.9922,0.9943,0.9955,0.9948,0.9983,0.9982,0.9984,0.9974,0.9975,0.9975,0.9971,0.9955,0,0,0,0,0,0.9757,0.9776,0.9802,0.9821,0.983,0.985,0.9862,0.9871,0.9891,0.9899,0.9915,0.9934,0.9952,0.9964,0.9982,1.0004,1.001,1.0013,1.0013,1.0013,1.0015,1.0026,1.0027,1.0013,1.0013,1.0013,0,0,0.9758,0.9777,0.9788,0.9819,0.9835,0.9852,0.9856,0.9876,0.9889,0.9901,0.9924,0.9936,0.9958,0.998,0.999,0.9991,1.002,1.0014,1.0014,1.0016,1.0027,1.0028,1.0029,1.0014,1.0014,1.0014,0,0,0.9769,0.9786,0.9804,0.9819,0.9842,0.9855,0.9859,0.9884,0.9893,0.9916,0.9925,0.9941,0.9973,0.9987,0.9999,1.0014,1.002,1.0019,1.0021,1.0032,1.0033,1.0034,1.0038,1.004,1.0021,1.0021,1.002,0,0.9768,0.9796,0.9812,0.983,0.9843,0.9855,0.9872,0.9886,0.9914,0.9922,0.9922,0.9961,0.9977,1.0002,1.0005,1.0014,1.0019,1.0016,1.0032,1.0033,1.0034,1.0038,1.004,1.002,1.002,1.002,1.002,0,0.9792,0.9811,0.9823,0.9849,0.9863,0.9881,0.9898,0.9911,0.9919,0.9931,0.9953,0.9972,0.9994,1.0,1.0009,1.0026,1.0026,1.0028,1.0028,1.0035,1.0039,1.0041,1.002,1.002,1.002,1.002,0,0,0.9798,0.9833,0.9836,0.9848,0.9874,0.9889,0.9906,0.9928,0.9937,0.9956,0.997,0.9996,0.9999,1.0012,1.0021,1.0031,1.004,1.0032,1.0033,1.0033,1.006,1.0057,1.0059,1.0044,1.0045,1.0045,1.0058,0,0.9812,0.9845,0.9859,0.9885,0.9902,0.9913,0.9928,0.9945,0.9957,0.9973,0.9985,1.0003,1.0006,1.0013,1.0023,1.0037,1.0046,1.0036,1.0057,1.0058,1.0052,1.0062,1.0059,1.007,1.006,1.006,1.006,0,0.9833,0.9851,0.9879,0.9902,0.991,0.9923,0.9943,0.9958,0.9977,0.9985,0.9999,1.0008,1.0026,1.0024,1.0048,1.0041,1.005,1.0058,1.0059,1.0062,1.0059,1.0064,1.0074,1.0076,1.0063,1.0063,1.0063,0,0.9833,0.9865,0.9886,0.9895,0.9923,0.9932,0.9943,0.9962,0.9974,0.9991,0.9999,1.0018,1.0028,1.0042,1.0055,1.0053,1.0078,1.0078,1.0084,1.0084,1.0089,1.0088,1.0101,1.0095,1.0095,1.0095,1.0095,0,0.9847,0.9864,0.9886,0.9899,0.9917,0.9932,0.9949,0.9962,0.9978,0.9992,1.0003,1.0016,1.0033,1.0048,1.0058,1.0076,1.0081,1.0087,1.0089,1.0086,1.0085,1.0092,1.0092,1.0096,1.0096,1.0095,1.0095,0,0.9851,0.9867,0.989,0.9914,0.992,0.9932,0.9952,0.9964,0.9976,0.9994,0.9999,1.0017,1.0035,1.005,1.0074,1.0081,1.0099,1.0102,1.0093,1.0094,1.01,1.0099,1.0117,1.012,1.0112,1.0112,1.0112,0,0.9859,0.9872,0.9897,0.9907,0.9919,0.9936,0.9948,0.9963,0.9974,0.9996,1.0005,1.0024,1.004,1.0068,1.0083,1.01,1.0104,1.0109,1.0107,1.0102,1.0103,1.0102,1.0103,1.0109,1.0109,1.0109,1.0109,0,0.9871,0.9878,0.9895,0.9914,0.9928,0.9944,0.996,0.9968,0.9986,0.9998,1.0017,1.0029,1.0053,1.0071,1.009,1.0101,1.0108,1.011,1.0112,1.0109,1.0102,1.0105,1.0093,1.0109,1.0109,1.0109,1.0109,1.0109,0.9877,0.9888,0.9907,0.9925,0.9939,0.9954,0.9966,0.9979,0.9995,1.0016,1.0024,1.0042,1.006,1.0086,1.0097,1.0111,1.0112,1.0116,1.0116,1.0117,1.0116,1.01,1.0115,1.0115,1.0115,1.0115,1.0115,0,0.9888,0.9901,0.9918,0.994,0.9954,0.9959,0.9977,0.9988,1.0005,1.002,1.0036,1.0056,1.0074,1.009,1.0108,1.0116,1.0119,1.012,1.012,1.0122,1.0115,1.0111,1.0117,1.0117,1.0117,1.0117,1.0117,1.0117,0.9896,0.9915,0.9924,0.995,0.9963,0.9981,0.9991,1.0004,1.0017,1.004,1.0054,1.0065,1.008,1.0099,1.0115,1.0119,1.0125,1.0125,1.013,1.0123,1.0122,1.0122,1.0118,1.0126,1.0126,1.0135,1.0136,1.0136]},{"header":{"parameterUnit":"m.s-1","parameterCategory":1,"la1":30.2991,"la2":30.254,"lo1":-89.0895,"lo2":-89.0444,"dy":0.0017,"dx":0.0017,"nx":28,"ny":28,"refTime":"2024-04-24T03:00:00:Z","depth":0,"parameterNumber":3,"parameterNumberName":"V-component_of_WINDS"},"data":[0,0,0,0,0,0,0,0,0,0,0,0,0,0,0,0,0,0,0,0,0,0,0,0,0,0,0,0,0,0,0,0,0,0,0,0,0,0,0,0,0,0,0,0,0,0,0,0,0,0,0,0,0,0,0,0,0,0,3.7739,3.7739,0,3.7754,3.7755,3.7755,3.7692,3.769,3.7688,3.7686,3.7701,3.7703,3.7705,0,0,0,0,0,0,0,0,0,0,0,0,0,3.7653,3.7654,3.7739,3.7739,3.7739,3.7754,3.7755,3.7755,3.7692,3.769,3.7688,3.7685,3.7701,3.7703,3.7706,0,0,0,0,0,0,0,0,0,0,0,0,0,3.7681,3.7655,3.7739,3.771,3.7707,3.7754,3.7755,3.7755,3.7693,3.769,3.7687,3.7684,3.77,3.7703,3.7706,3.7781,0,0,3.7716,3.7717,0,0,0,0,0,0,0,0,3.768,3.7685,3.7714,3.7712,3.7709,3.7718,3.773,3.7764,3.7693,3.7698,3.7686,3.7683,3.7709,3.7711,3.772,3.7782,3.7783,3.7716,3.7718,3.7719,3.772,0,0,0,0,0,0,0,3.7678,3.7683,3.7745,3.7714,3.7711,3.7695,3.7696,3.7736,3.7719,3.7697,3.7693,3.7696,3.7707,3.7717,3.772,3.7783,3.7716,3.7719,3.7721,3.7722,3.7906,3.7909,0,0,0,0,0,0,3.768,3.7682,3.7744,3.7745,3.7687,3.7699,3.77,3.7718,3.7718,3.7716,3.7698,3.7693,3.7713,3.7717,3.7721,3.7808,3.7719,3.7722,3.7724,3.7903,3.7906,3.791,0,0,0,0,0,0,3.7678,3.7686,3.7744,3.7713,3.7719,3.7704,3.7724,3.772,3.773,3.7719,3.7715,3.7712,3.7711,3.7716,3.7766,3.7807,3.7724,3.7727,3.7899,3.7904,3.7908,3.7983,0,0,0,0,0,0,3.7676,3.7686,3.7715,3.7714,3.7721,3.779,3.7727,3.7722,3.7736,3.7729,3.7731,3.7728,3.7709,3.7762,3.777,3.781,3.7729,3.7896,3.7901,3.7907,3.7977,3.799,3.8001,0,0,0,0,0,3.7673,3.7735,3.7717,3.7724,3.7757,3.7793,3.7796,3.7774,3.7739,3.7768,3.7761,3.7728,3.7802,3.7768,3.7776,3.7818,3.7893,3.79,3.7906,3.7972,3.7987,3.8,0,0,0,0,0,0,3.7741,3.7735,3.7714,3.7778,3.7786,3.7782,3.7817,3.7791,3.781,3.7802,3.7773,3.7774,3.7829,3.7829,3.7791,3.789,3.7841,3.785,3.7888,3.7903,3.7915,3.7913,3.7732,0,0,0,0,0,3.7764,3.7794,3.7787,3.7844,3.7849,3.7833,3.7848,3.7829,3.7837,3.784,3.7837,3.7845,3.7869,3.7886,3.7909,3.7977,3.7976,3.801,3.8022,3.8032,3.8039,3.8074,3.8089,3.7932,3.7932,3.7931,0,0,3.7811,3.7811,3.7832,3.7857,3.7862,3.7893,3.7836,3.7872,3.7895,3.7845,3.7892,3.789,3.7897,3.7957,3.7983,3.7958,3.8082,3.804,3.8048,3.805,3.8082,3.8097,3.811,3.7936,3.7935,3.7935,0,0,3.7911,3.7915,3.7962,3.7968,3.7976,3.7964,3.7976,3.7976,3.7972,3.8019,3.7983,3.8009,3.8053,3.8059,3.8068,3.8171,3.8141,3.8179,3.824,3.8274,3.8287,3.8298,3.8333,3.8346,3.8187,3.8187,3.8187,0,3.7968,3.8014,3.799,3.8028,3.804,3.7997,3.8044,3.8051,3.8065,3.8074,3.8047,3.81,3.8102,3.8161,3.8187,3.8196,3.8207,3.8178,3.8287,3.8298,3.8307,3.8341,3.8354,3.8191,3.8191,3.819,3.819,0,3.8083,3.8116,3.8153,3.8168,3.8184,3.8227,3.8208,3.8227,3.8208,3.8199,3.8247,3.8248,3.8269,3.8282,3.8264,3.8339,3.8323,3.8292,3.8242,3.8327,3.8358,3.8371,3.8198,3.8196,3.8195,3.8194,0,0,3.8227,3.8228,3.8242,3.8247,3.8253,3.8277,3.8317,3.8338,3.8355,3.8366,3.8399,3.8437,3.8407,3.8417,3.8399,3.843,3.8509,3.8394,3.8394,3.8414,3.8591,3.8614,3.8629,3.849,3.8493,3.8495,3.859,0,3.8325,3.8393,3.8372,3.8442,3.8471,3.8431,3.8465,3.8472,3.8465,3.8488,3.848,3.8507,3.8467,3.8473,3.8501,3.8494,3.8544,3.8487,3.8519,3.852,3.8517,3.8646,3.867,3.876,3.8602,3.8604,3.8606,0,3.8448,3.8464,3.8536,3.8536,3.8547,3.8579,3.8596,3.8619,3.8625,3.8618,3.863,3.8605,3.8643,3.8594,3.8647,3.8608,3.862,3.8618,3.8621,3.8622,3.8568,3.8649,3.8789,3.8802,3.8625,3.8623,3.8622,0,3.8544,3.8584,3.8632,3.8638,3.8639,3.8662,3.8664,3.8667,3.8681,3.8696,3.8704,3.8724,3.8734,3.8749,3.873,3.8696,3.8785,3.8734,3.8779,3.8779,3.8798,3.8797,3.8941,3.8809,3.8808,3.8808,3.8808,0,3.8655,3.87,3.8675,3.8704,3.8753,3.8729,3.8778,3.8775,3.8778,3.8806,3.8773,3.8799,3.8773,3.8797,3.8782,3.8827,3.8832,3.8827,3.8822,3.8829,3.8829,3.8835,3.8828,3.8812,3.8811,3.881,3.881,0,3.877,3.8755,3.8804,3.8801,3.8801,3.8838,3.8834,3.8861,3.8852,3.8887,3.8894,3.8879,3.8905,3.8888,3.8915,3.8905,3.8963,3.895,3.8961,3.8957,3.9002,3.8998,3.9153,3.9172,3.9029,3.9031,3.9032,0,3.8841,3.8875,3.8875,3.8891,3.8895,3.8921,3.8935,3.8912,3.8927,3.8937,3.8962,3.8986,3.9003,3.9047,3.9038,3.9058,3.9045,3.9098,3.9048,3.9053,3.9044,3.9042,3.9045,3.9108,3.911,3.9111,3.9112,0,3.8968,3.8959,3.898,3.8999,3.9016,3.903,3.904,3.9055,3.9032,3.9051,3.9078,3.9091,3.9118,3.9142,3.9158,3.9159,3.9132,3.9128,3.9139,3.9146,3.915,3.9147,3.8987,3.9125,3.9123,3.9122,3.9122,3.9121,3.9062,3.909,3.9094,3.9119,3.9125,3.9135,3.916,3.9154,3.9175,3.9195,3.9181,3.9212,3.9216,3.9236,3.924,3.9264,3.9242,3.9258,3.9262,3.9266,3.9272,3.9148,3.9267,3.9266,3.9266,3.9266,3.9266,0,3.9187,3.9187,3.921,3.9226,3.9245,3.9219,3.9229,3.9246,3.9274,3.9281,3.9299,3.9329,3.9352,3.9345,3.9365,3.9385,3.9373,3.9391,3.9388,3.9389,3.9291,3.9279,3.94,3.94,3.94,3.94,3.94,3.94,3.9254,3.9299,3.929,3.9337,3.9338,3.9368,3.9376,3.9386,3.9391,3.9426,3.9444,3.944,3.9441,3.946,3.948,3.9477,3.9485,3.9508,3.9501,3.9409,3.9396,3.9383,3.9371,3.951,3.951,3.9596,3.9597,3.9597]}]]